Hourly Weather Roundup
Issued by NWS Central Illinois

Home | Current Version | Previous Version | Text Only | Print | Product List | Glossary On
Versions: 1 2 3 4 5 6 7 8 9 10 11 12 13 14 15 16 17 18 19 20 21 22 23 24 25 26 27 28 29 30 31 32 33 34 35 36 37 38 39 40 41 42 43 44 45 46 47 48 49 50
000
NZUS43 KILX 300910
HWRILX

AREA WEATHER ROUNDUP
NATIONAL WEATHER SERVICE, LINCOLN IL
400 AM CDT SAT APR 30 2016


CITY           SKY/WX    TMP DP  RH WIND       PRES   REMARKS
BLOOMINGTON    CLOUDY    46  46 100 E16       29.99F FOG
CHAMPAIGN      LGT RAIN  50  48  93 E12       29.98R FOG
DANVILLE       CLOUDY    51  46  86 E8        29.98R
DECATUR        LGT RAIN  50  47  89 E13       29.94F FOG
EFFINGHAM      RAIN      56  56  99 NE5       29.96R
FLORA          DRIZZLE   60  57  90 NE3       29.93R
GALESBURG      DRIZZLE   45  42  88 NE12G17   29.96F
JACKSONVILLE   RAIN      51  49  93 E14       29.90F
LACON          CLOUDY    45  42  89 NE8       30.00S FOG
LAWRENCEVILLE  CLOUDY    58  54  86 E10       29.93S
LITCHFIELD     RAIN      54  52  93 E12       29.90S
$$


CITY           SKY/WX    TMP DP  RH WIND       PRES   REMARKS
LINCOLN        DRIZZLE   49  47  95 E12       29.94F
MACOMB         LGT RAIN  47  46  94 E14       29.96S
MATTOON        LGT RAIN  54  50  86 E7        29.94F FOG
MT CARMEL AP   NOT AVBL
OLNEY-NOBLE AP CLOUDY    59  55  88 E5        29.93R
PARIS          CLOUDY    54  50  87 E10G16    29.98S
PEORIA         LGT RAIN  47  43  86 E15       29.96F FOG
PONTIAC        CLOUDY    46  44  95 NE10      30.02R FOG
RANTOUL        CLOUDY    51  48  89 E12       29.99S
ROBINSON       CLOUDY    56  53  91 E6        29.95R
SPRINGFIELD    LGT RAIN  52  48  86 E13       29.92F FOG
TAYLORVILLE    LGT RAIN  52  50  93 E12       29.93R
$$

...REGIONAL REPORTS...


CITY           SKY/WX    TMP DP  RH WIND       PRES   REMARKS
CHICAGO O`HARE CLOUDY    44  40  85 NE7       30.07S
KANKAKEE       CLOUDY    46  43  90 NE10      30.04S
MOLINE         CLOUDY    46  41  82 E15       29.99S
MOUNT STERLING CLOUDY    49  46  92 E15       29.89F FOG
MOUNT VERNON   CLOUDY    59  52  77 CALM      29.91R
PITTSFIELD     LGT RAIN  52  51  97 NE9       29.88F
QUINCY         CLOUDY    50  47  89 E15       29.86F FOG
ROCKFORD       CLOUDY    44  38  79 NE10      30.08S
$$


CITY           SKY/WX    TMP DP  RH WIND       PRES   REMARKS
BURLINGTON     LGT RAIN  47  45  93 E13       29.93F FOG
CEDAR RAPIDS   LGT RAIN  45  42  89 E17       29.97S
DES MOINES     LGT RAIN  46  41  82 E18G24    29.89F
KIRKSVILLE     LGT RAIN  49  46  90 E21G29    29.80F FOG
OTTUMWA        LGT RAIN  45  44  97 E18       29.91F FOG
ST LOUIS       LGT RAIN  59  56  89 E10       29.88R FOG
$$


CITY           SKY/WX    TMP DP  RH WIND       PRES   REMARKS
TERRE HAUTE    LGT RAIN  54  50  86 E12       29.96F
EVANSVILLE     CLOUDY    61  53  75 E5        29.93R
INDIANAPOLIS   CLOUDY    52  46  80 E15       30.00R
LAFAYETTE      CLOUDY    50  45  83 E13       30.01S
MADISON        CLOUDY    43  34  70 E8        30.10R
MILWAUKEE      CLOUDY    41  35  79 NE6       30.09F
$$






USA.gov is the U.S. government's official web portal to all federal, state and local government web resources and services.